Location: Centerville
(32.8776°N, 96.6203°W)
Time: 09:40:43
(UTC+00:00)

Cosmos 2237 - Pass Details

Date: 24 October 2021
Orbit: 845 x 856 km, 70.8° (Epoch: 08 December)

Event Time Altitude Azimuth Distance (km) Brightness Sun altitude
Rises 00:19:52 0° 186° (S) 3,398 7.5 -8.2°
Reaches altitude 10° 00:22:21 10° 181° (S) 2,467 6.8 -8.8°
Maximum altitude 00:27:50 53° 106° (ESE) 1,042 4.4 -9.9°
Drops below altitude 10° 00:33:22 10° 31° (NNE) 2,487 6.3 -11.1°
Sets 00:35:53 0° 27° (NNE) 3,428 7.0 -11.6°
